Regional Weather Roundup
Issued by NWS Albany, NY

Home | Current Version | Previous Version | Text Only | Print | Product List | Glossary On
Versions: 1 2 3 4 5 6 7 8 9 10 11 12 13 14 15 16 17 18 19 20 21 22 23 24 25 26 27 28 29 30 31 32 33 34 35 36 37 38 39 40 41 42 43 44 45 46 47 48 49 50
000
ASUS41 KALY 261810
RWRALY

NEW YORK STATE HOURLY WEATHER ROUNDUP
NATIONAL WEATHER SERVICE ALBANY NY
100 PM EST WED NOV 26 2014

NOTE: "FAIR" INDICATES FEW OR NO CLOUDS BELOW 12,000 FEET WITH NO
SIGNIFICANT WEATHER AND/OR NO OBSTRUCTIONS TO VISIBILITY.

NYZ032-033-038>043-046>054-057>066-NYZ062>081-261900-
EAST


CITY           SKY/WX    TMP DP  RH WIND       PRES   REMARKS
ALBANY         SNOW      33  31  92 N6        30.13F VSB 1/2 WCI  28
GLENS FALLS    SNOW      32  30  92 N9        30.12F VSB 1/2 WCI  24
POUGHKEEPSIE   SNOW      34  31  88 N7        30.06S VSB 1/4 WCI  28
NEWBURGH       SNOW      32  32 100 NE12      30.05S VSB 1/2 WCI  23
MONTGOMERY     SNOW      33  31  92 N10       30.04S VSB 1/2 WCI  25
WHITE PLAINS   LGT SNOW  33  32  96 N8        30.01R VSB 1   WCI  26
ISLIP          RAIN      39  36  89 N15       29.98F FOG     WCI  31
NEW YORK CITY  LGTSLEET  34  32  93 N10G16    30.00F FOG     WCI  26
CENTRAL PARK   LGT SNOW  35  31  85 NE6       30.04S FOG     WCI  30
$$

NYZ005>009-017-018-044>046-055-056-261900-
CENTRAL


CITY           SKY/WX    TMP DP  RH WIND       PRES   REMARKS
FULTON         LGT SNOW  34  26  72 E3        30.13F
SYRACUSE       LGT SNOW  33  30  88 CALM      30.12F VSB 3/4
ROME           SNOW      31  30  96 CALM      30.14F VSB 1/2
ELMIRA         SNOW      32  31  96 CALM      30.07F VSB 1/2
BINGHAMTON     SNOW      30  28  92 NE5       30.03F VSB 1/2 WCI  25
MONTICELLO     CLOUDY    30  30 100 CALM      30.03F VSB 1/2
$$

NYZ026>034-041>043-261900-
NORTH


CITY           SKY/WX    TMP DP  RH WIND       PRES   REMARKS
WATERTOWN      CLOUDY    33  20  58 NE10      30.15F WCI  25
FORT DRUM      NOT AVBL
MASSENA        CLOUDY    32  19  58 NE6       30.19F WCI  26
SARANAC LAKE   CLOUDY    29  22  75 NE6       30.06F WCI  23
PLATTSBURGH    CLOUDY    32  20  61 N8        30.18F WCI  25
$$

NYZ001>004-010>016-019>021-261900-
WEST


CITY           SKY/WX    TMP DP  RH WIND       PRES   REMARKS
NIAGARA FALLS  FLURRIES  34  25  69 E10       30.13F WCI  26
BUFFALO        FLURRIES  33  25  72 NE9       30.12F WCI  25
DUNKIRK        LGT SNOW  32  28  86 N8        30.11F VSB 1   WCI  25
JAMESTOWN      CLOUDY    30  25  80 E6        30.03F VSB 1   WCI  24
WELLSVILLE     LGT SNOW  29  24  82 CALM      30.03F
ROCHESTER      LGT SNOW  35  28  75 E8        30.13S WCI  29
PENN YAN       LGT SNOW  31  29  92 N3        30.08F VSB 1
$$

             KEY
       WCI = WIND CHILL INDEX
       VSB = VISIBILITY
       HX  = HEAT INDEX
$$



USA.gov is the U.S. government's official web portal to all federal, state and local government web resources and services.